User: anonymous   Login
Location: Unspecified
(0.0000°N, 0.0000°E)
Time: 16:07:57
(UTC+00:00)
Language:

Mayak - Orbit

View from above orbital plane
View from above orbital plane
View from above satellite
View from above satellite

Ground track
Ground track

The orbit data is extracted from the following two-line orbital elements,

1 42830U 17042F   17229.90427645 +.00000780 +00000-0 +84851-4 0  9994
2 42830 097.6114 138.3711 0015808 121.4392 238.8375 14.90692998005148
Epoch (UTC): 17 August 2017 21:42:09
Eccentricity: 0.0015808
inclination: 97.6114°
perigee height: 585 km
apogee height: 607 km
right ascension of ascending node: 138.3711°
argument of perigee: 121.4392°
revolutions per day: 14.90692998
mean anomaly at epoch: 238.8375°
orbit number at epoch: 514

The dashed part of the orbit path shows where the satellite is in the earth's shadow,  

DLR